sat.trackr.live / text

‹ back to catalog

QIANFAN-140

NORAD 69086 · 2026-104P

PAYLOAD ACTIVE UNKNOWN

§ Identity

Operator
Country
PRC
Launch date
2026-05-12
Launch site
TAISC
Launch vehicle
Mass (kg)
RCS (m²)

External: N2YO · Heavens-Above · Gunter

§ Orbital elements

Epoch: 2026-09-20T04:58:17.490432Z

Period
106.59 min
Inclination
88.9900°
Eccentricity
0.0002538
Mean motion
13.51022936 rev/d
Perigee alt
1,066.6 km
Apogee alt
1,070.4 km
Semi-major
7,446.6 km
B*
7.7543e-5
RAAN
331.7806°
Arg perigee
110.7173°
Mean anomaly
249.4250°
Rev number
1,798

§ Raw data

QIANFAN-1401 69086U 26104P   26263.20714688  .00000062  00000+0  77543-4 0  99942 69086  88.9900 331.7806 0002538 110.7173 249.4250 13.51022936 17984

JSON: /api/v1/satellites/69086 · /tle

For live sub-satellite position, see the globe view (requires WebGL).

§ Visibility from observer

Set your observer location to see the next 7 days of passes ≥ 10°. The values pass through the URL so the page stays shareable.

No JS? Fill the form by hand. The geolocation button needs JavaScript.